Location: Aressy
(43.2833°N, 0.3167°W)
Time: 21:00:43
(UTC+00:00)

Cosmos 1844 - Pass Details

Date: 28 January 2021
Orbit: 821 x 869 km, 70.9° (Epoch: 03 March)

Event Time Altitude Azimuth Distance (km) Brightness Sun altitude
Rises 17:36:05 0° 216° (SW) 3,380 7.9 -5.6°
Reaches altitude 10° 17:38:33 10° 220° (SW) 2,456 7.2 -6.0°
Maximum altitude 17:44:06 57° 299° (WNW) 1,000 4.4 -6.9°
Drops below altitude 10° 17:49:46 10° 18° (NNE) 2,503 5.8 -7.9°
Sets 17:52:18 0° 22° (NNE) 3,450 6.5 -8.4°
